{"data":{"norad_id":59623,"intl_designator":"2024-080Y","name":"STARLINK-31763","alt_names":[],"object_type":"PAYLOAD","status":"ACTIVE","operator":null,"country":"US","launch_date":"2024-04-28","launch_site_code":"AFETR","launch_vehicle":null,"mission":null,"orbit_class":"UNKNOWN","rcs_meters":null,"size_class":null,"mass_kg":null,"dimensions":null,"purposes":["comms"],"wikipedia_slug":null,"has_3d_model":false,"image_url":null,"decayed_at":null,"tle_current":{"epoch":"2026-09-20T15:25:06.237984Z","epoch_age_seconds":155813,"freshness":"FRESH","line1":"1 59623U 24080Y   26263.64243331 -.00003105  00000+0 -10346-3 0  9991","line2":"2 59623  43.0023  17.2981 0001107 208.3718 151.7074 15.27554312134340","mean_motion":15.27554312,"eccentricity":0.0001107,"inclination_deg":43.0023,"raan_deg":17.2981,"arg_perigee_deg":208.3718,"mean_anomaly_deg":151.7074,"bstar":-0.00010346,"rev_number":13434,"period_min":94.268333943206,"perigee_km":482.36647441488,"apogee_km":483.88555804668,"semimajor_km":6861.2630162308,"source":"CELESTRAK","updated_at":"2026-09-22T09:00:49.015818Z"}}}